Regional Weather Roundup
Issued by NWS

Home | Current Version | Previous Version | Text Only | Print | Product List | Glossary On
Versions: 1 2 3 4 5 6 7 8 9 10 11 12 13 14 15 16 17 18 19 20 21 22 23 24 25 26 27 28 29 30 31 32 33 34 35 36 37 38 39 40 41 42 43 44 45 46 47 48 49 50
000
ASHW40 PHFO 220243
RWRHI

WEATHER ROUNDUP FOR HAWAII
NATIONAL WEATHER SERVICE HONOLULU HI
400 PM HST TUE FEB 21 2017

THIS IS AN AUTOMATED REPORT THAT HAS NOT BEEN QUALITY CONTROLLED.

NOTE..."FAIR" INDICATES FEW OR NO CLOUDS BELOW 12,000 FEET WITH NO
SIGNIFICANT WEATHER AND/OR OBSTRUCTIONS TO VISIBILITY.

* - THESE SITES REPORT LIMITED FIELDS

HIZ001>004-220300-
KAUAI-NIIHAU-

CITY           SKY/WX    TMP DP  RH WIND       PRES   REMARKS
LIHUE APT      PTSUNNY   75  59  57 NE16      30.23S
PORT ALLEN*      N/A     79 N/A N/A E22G29      N/A
POIPU*           N/A     77 N/A N/A E10G21      N/A
PRINCEVILLE*     N/A     72 N/A N/A NE10G18     N/A
KOKOLE POINT*  NOT AVBL
MOLOAA DAIRY*    N/A     70  63  78 E5G13       N/A
WAIMEA HTS*      N/A     81  59  47 S6G12       N/A
PUU OPAE*      NOT AVBL
PUU LUA*       NOT AVBL
MAKAHA RIDGE*    N/A     72  59  64 N5G15       N/A
$$

HIZ005>011-220300-
OAHU-

CITY           SKY/WX    TMP DP  RH WIND       PRES   REMARKS
HONOLULU       PTSUNNY   77  58  51 NE16G24   30.18S
KALAELOA       LGT RAIN  79  60  52 NE10G21   30.19S
KANEOHE MCB    NOT AVBL
WHEELER FIELD  PTSUNNY   69  61  74 E6        30.19R
BELLOWS*         N/A    N/A N/A N/A NE24        N/A
KAHUKU*          N/A    N/A N/A N/A NE13G28     N/A
WHEELER*         N/A    N/A N/A N/A E3G10       N/A
WAIANAE HARBOR   N/A    N/A N/A N/A NE10G21     N/A
DILLINGHAM*    NOT AVBL
KAHUKU TRN*      N/A     75  61  60 W12G25      N/A
KAWAILOA*        N/A     68  59  73 E13G28      N/A
KII*             N/A     75  61  60 E21G26      N/A
MAKUA RANGE*     N/A    N/A N/A N/A W12G29      N/A
OAHU FOREST NW   N/A     66  57  72 CALM        N/A
SCHOFIELD BRK*   N/A     68  59  73 MISG        N/A
SCHOFIELD S*   NOT AVBL
WAIANAE VLY*     N/A     70  59  68 S5G16       N/A
KUAOKALA*        N/A     70   0   6 NE25G40     N/A
HONOULIUULI*   NOT AVBL
MOKUOLOE IS*   NOT AVBL
PALEHUA*         N/A     63  57  82 NE8G25      N/A
WAIAWA PHB*    NOT AVBL
$$

HIZ012>013-220300-
MOLOKAI-

CITY           SKY/WX    TMP DP  RH WIND       PRES   REMARKS
MOLOKAI AIRPT  SUNNY     76  58  53 NE28G36   30.18F
KALAUPAPA      NOT AVBL
MAKAPULAPAI*     N/A     75  59  57 E20G28      N/A
MOLOKAI 1*       N/A     64  54  68 NE7G20      N/A
PUU ALII*        N/A     56  55  96 N3G14       N/A
$$

HIZ016-220300-
KAHOOLAWE-

CITY           SKY/WX    TMP DP  RH WIND       PRES   REMARKS
KAHOOLAWE*     NOT AVBL
HAKIOAWA*        N/A     73  60  63 MISG      30.57S
HONOKANAIA*      N/A     79  57  46 NE18G35   30.09F
KANELOA*         N/A     73  59  60 E24G36    30.22F
KEALIALALO*    NOT AVBL
LUA MAKIKA*    NOT AVBL
$$

HIZ014>015-220300-
LANAI-

CITY           SKY/WX    TMP DP  RH WIND       PRES   REMARKS
LANAI CITY       N/A     71  59  65 NE31G38   30.19S
LANAI 1*         N/A     70  57  64 NE24G35     N/A
$$

HIZ017>028-220300-
MAUI-

CITY           SKY/WX    TMP DP  RH WIND       PRES   REMARKS
KAHULUI        PTSUNNY   78  59  51 E15G28    30.17S
KAPALUA-W MAUI NOT AVBL
HANA AIRPORT   PTSUNNY   75  59  57 E3        30.24S
HANA*            N/A     75 N/A N/A NE13G18     N/A
HALEAKALA SUMM   N/A     46  36  66 S5          N/A
MAALAEA BAY*     N/A     77 N/A N/A N21G32      N/A
HALEAKALA*     NOT AVBL
KAUPO GAP*       N/A     75  61  60 N13G25      N/A
KULA 1*          N/A     51  49  91 W3G10       N/A
$$

HIZ023>026-220300-
BIG ISLAND OF HAWAII COAST AND LOWER SLOPES-

CITY           SKY/WX    TMP DP  RH WIND       PRES   REMARKS
KAILUA KONA    PTSUNNY   78  63  59 SW12      30.11R
HILO           PTSUNNY   75  61  61 NE15      30.19S
HONOKAA*         N/A     64 N/A N/A VRB1        N/A
KAWAIHAE MWT*    N/A     86 N/A N/A S8G16       N/A
KAWAIHAE*        N/A     81 N/A N/A SW9       30.11R
SOUTH POINT*     N/A     73 N/A N/A N21G31      N/A
UPOLU AIRPORT* NOT AVBL
KAMUELA*       CLOUDY    63  55  77 NE25      30.23R
HAKALAU*         N/A     51  49  92 SE2G8       N/A
KALOKO-HONOKO*   N/A     81  64  57 W9        30.11S
PALI 2*          N/A     68  52  56 S23G36      N/A
KEALAKOMO*       N/A     81  57  44 NE23G35     N/A
KAUPULEHU*       N/A     72  57  60 VRB9G23     N/A
KAPAPALA*        N/A     77  53  43 NE12G21     N/A
LOWER KAHUKU*    N/A     61  57  88 E3G13       N/A
PUHE CS*         N/A     82  52  34 S5G14       N/A
PUHO CS*         N/A     82  61  48 W3G9        N/A
PTA KEAMUKU*     N/A     61  54  77 CALM        N/A
WAIKOLOA*        N/A     72  57  60 NE24G39     N/A
$$

HIZ027>028-220300-
BIG ISLAND OF HAWAII INTERIOR AND SUMMMITS-

CITY           SKY/WX    TMP DP  RH WIND       PRES   REMARKS
BRADSHAW FIELD CLOUDY    57  37  47 SE8       30.37F
MK VISITOR CEN   N/A     45  14  29 SE3         N/A
MAUNA KEA*       N/A     23  14  68 S1          N/A
MAUNA LOA*       N/A    N/A N/A N/A MISG        N/A
MAUNA LOA 1*   NOT AVBL
PTA KIPUKA*      N/A     59  46  63 NW8G15      N/A
PTA RANGE 17*    N/A     66  45  45 SE10G23     N/A
PTA WEST*        N/A     64  50  59 NW8G16      N/A
NENE CABIN*      N/A     50  39  66 SE5G12      N/A
AHUMOA*          N/A     54  46  73 W5G17       N/A
PTA PORTABLE*  NOT AVBL
PUU MALI*        N/A     54  45  71 NW5G17      N/A
$$

HIC003-220300-
NORTHWEST ISLANDS-

CITY           SKY/WX    TMP DP  RH WIND       PRES   REMARKS
MIDWAY ISLAND  PTSUNNY   73  68  83 SE8       30.20F
MIDWAY NOS*      N/A     72 N/A N/A MISG      30.18F
FRENCH FRIGATE NOT AVBL
$$

PHZ110>124-180-220300-
BUOY REPORTS

STATION/POSITION TIME  TEMP    WIND        PRES    WAVE   SWELL
                       AIR SEA DIR/SP/G            HT/PER HT/DIR
                 (UTC) (F)     (DEG/KT/KT) (MB)    (FT/S) (FT/D)
BUOY 51001       0220   71 72   60/ 16/ 17 1025.7
BUOY 51101       0150   71 72   60/ 16/ 19 1025.8F   6/ 9   3/350
BUOY 51100       NOT AVBL
BUOY 51002       0220   76 77   60/ 23/ 27 1018.5
BUOY 51003       0150   75 77   60/ 16/ 19 1020.0F   9/ 8   7/ 80
BUOY 51004       0150      77   50/ 23/ 27 1018.5R  10/13   7/340
BARBERS PT BUOY  NOT AVBL
WAIMEA BAY BUOY  0202      75                N/A     7/10   2/340
KAILUA BAY BUOY  0204      75                N/A     9/11   3/360
LANAI BUOY       0215      76                N/A     3/11   2/290
BARBERS PT 2     NOT AVBL
PAUWELA MAUI     0209      75                N/A     7/ 7   2/350
HILO             0212      76                N/A     8/ 8   3/360
KANEOHE BAY BUOY 0206      75                N/A     8/10   3/350
HANALEI KAUAI    0222      76                N/A     7/ 9   2/330
KAHULUI HARBOR   0206   73 75   50/ 16/ 23 1021.9
HONOLULU HARBOR  0206   75 75   50/  5/ 13 1022.7
KILO NALU        NOT AVBL
HILO HARBOR      0206   74 75   20/  8/ 19 1022.0
MOKUOLOE         0136   74 74   70/ 16/ 20 1022.5F
NAWILIWILI       0218   74      50/ 12/ 20 1023.2
WHOTS BUOY       NOT AVBL
BUOY 51028       NOT AVBL
$$

......................KEY........................................
  SKY/WX - SKY CONDITIONS/PRESENT WEATHER
  TMP    - TEMPERATURE IN FAHRENHEIT
  DWPT   - DEWPOINT IN FAHRENHEIT
  RH     - RELATIVE HUMIDITY IN PERCENT
  WIND   - DIRECTION AND SPEED /MPH FOR ISLANDS...KTS FOR BUOYS/
  PRES   - MEAN SEA LEVEL PRESSURE IN INCHES OF HG
  VSB    - VISIBILITY IN MILES
  HX     - HEAT INDEX
  WCI    - WIND CHILL INDEX
  VRB    - VARIABLE WIND DIRECTION
  N/A    - NOT AVAILABLE




USA.gov is the U.S. government's official web portal to all federal, state and local government web resources and services.